Regional Weather Roundup
Issued by NWS

Home | Current Version | Previous Version | Text Only | Print | Product List | Glossary On
Versions: 1 2 3 4 5 6 7 8 9 10 11 12 13 14 15 16 17 18 19 20 21 22 23 24 25 26 27 28 29 30 31 32 33 34 35 36 37 38 39 40 41 42 43 44 45 46 47 48 49 50
000
ASUS46 KPQR 141510
RWROR

OREGON REGIONAL WEATHER ROUNDUP
NATIONAL WEATHER SERVICE PORTLAND OR
700 AM PST SUN FEB 14 2016

NOTE: "FAIR" INDICATES FEW OR NO CLOUDS BELOW 12,000 FEET WITH
NO SIGNIFICANT WEATHER AND/OR OBSTRUCTIONS TO VISIBILITY.

ORZ001>013-141600-
NORTHWEST OREGON


CITY           SKY/WX    TMP DP  RH WIND       PRES   REMARKS
ASTORIA        LGT RAIN  52  52 100 SW15G22   30.14R FOG
NEWPORT        RAIN      52  52 100 S16       30.27S
PORTLAND       LGT RAIN  52  49  89 S10       30.18S
VANCOUVER WA   CLOUDY    51  51 100 SE3       30.18S
SCAPPOOSE      CLOUDY    48  47  96 CALM      30.18R FOG
HILLSBORO      LGT RAIN  49  48  97 S6        30.17S
AURORA         LGT RAIN  50  49  96 S17G25    30.20S
MCMINNVILLE    LGT RAIN  51  49  92 SE5       30.20S
SALEM          LGT RAIN  51  48  89 S17G26    30.21S
CORVALLIS      CLOUDY    54  48  82 S17       30.26R
EUGENE         CLOUDY    50  48  93 S9        30.29R
$$

ORZ021-028-141600-
SOUTHWEST OREGON


CITY           SKY/WX    TMP DP  RH WIND       PRES   REMARKS
NORTH BEND     CLOUDY    54  52  94 S12       30.32S
BROOKINGS      LGT RAIN  49  48  97 CALM      30.40R FOG
ROSEBURG       CLOUDY    51  47  86 CALM      30.32R
SEXTON SUMMIT  LGT RAIN  41  40  96 SW14      30.32R VSB 1/4
MEDFORD        CLOUDY    46  43  89 CALM      30.36F
$$

ORZ014>016-041-141600-
COLUMBIA GORGE


CITY           SKY/WX    TMP DP  RH WIND       PRES   REMARKS
TROUTDALE      LGT RAIN  53  48  83 VRB6      30.18F
THE DALLES     CLOUDY    42  40  92 CALM      30.15F
$$

ORZ029>031-041-044-049-050-061>064-502-503-505>511-141600-
EASTERN OREGON


CITY           SKY/WX    TMP DP  RH WIND       PRES   REMARKS
REDMOND        CLOUDY    39  37  92 NE5       30.19R
BEND           CLOUDY    46  39  76 SW9G16    30.17S
PRINEVILLE     CLOUDY    39  39 100 CALM      30.20S
KLAMATH FALLS  CLOUDY    42  40  92 SW5       30.30S
LAKEVIEW       CLOUDY    37  36  93 S8        30.32R WCI  31
HERMISTON      LGT RAIN  48  42  80 CALM      30.14R
PENDLETON      LGT RAIN  47  42  83 S3        30.14R
JOHN DAY       DRIZZLE   36  35  96 E6        30.23R WCI  31
MEACHAM        LGT RAIN  35  33  92 CALM      30.14S FOG
LA GRANDE      CLOUDY    39  34  81 CALM      30.17S
BAKER CITY     LGT RAIN  33  33 100 CALM      30.20R FOG
BURNS          CLOUDY    36  33  89 W5        30.24R WCI  32
ROME             N/A     43  37  79 S3        30.23R
ONTARIO        LGT RAIN  39  36  89 CALM      30.26R
$$



USA.gov is the U.S. government's official web portal to all federal, state and local government web resources and services.